Regional Weather Roundup
Issued by NWS Wilmington, NC

Home | Current Version | Previous Version | Text Only | Print | Product List | Glossary On
Versions: 1 2 3 4 5 6 7 8 9 10 11 12 13 14 15 16 17 18 19 20 21 22 23 24 25 26 27
000
ASUS42 KILM 262113
RWRILM
RWRILM
REGIONAL HOURLY WEATHER ROUNDUP
NATIONAL WEATHER SERVICE WILMINGTON NC
500 PM EDT TUE SEP 26 2017

NOTE: "FAIR" INDICATES FEW OR NO CLOUDS BELOW 12,000 FEET WITH NO
SIGNIFICANT WEATHER AND/OR OBSTRUCTIONS TO VISIBILITY.

...............WFO WILMINGTON COUNTY WARNING AREA...............

......COASTAL NC AND SC COUNTIES......

CITY           SKY/WX    TMP DP  RH WIND       PRES   REMARKS
WILMINGTON     PTSUNNY   84  71  65 N17G25    29.76S
N MYRTLE BEACH SUNNY     87  70  56 N12G22    29.77F HX  92
MYRTLE BEACH   MOSUNNY   87  71  58 N15G21    29.79F HX  93

......INLAND NC AND SC COUNTIES.......

CITY           SKY/WX    TMP DP  RH WIND       PRES   REMARKS
LUMBERTON      SUNNY     86  70  58 N14       29.81F HX  90
ELIZABETHTOWN  NOT AVBL
WHITEVILLE     MOSUNNY   85  70  60 N6        29.79S HX  90
FLORENCE       MOSUNNY   87  72  60 N10       29.82F HX  93
DARLINGTON     SUNNY     88  73  61 NE9       29.84S HX  95
KINGSTREE      NOT AVBL
HARTSVILLE     NOT AVBL
BENNETTSVILLE  NOT AVBL
CONWAY         NOT AVBL
GEORGETOWN     NOT AVBL
MARION         NOT AVBL

....................REST OF NORTH CAROLINA......................

.........EASTERN NC.........

CITY           SKY/WX    TMP DP  RH WIND       PRES   REMARKS
CAPE HATTERAS  LGT RAIN  78  75  90 N17G32    29.61S FOG
JACKSONVILLE   LGT RAIN  80  73  79 N8G17     29.78R
MOREHEAD CITY  MOSUNNY   83  73  72 N24G39    29.68R
KENANSVILLE    PTSUNNY   82  70  65 N15G21    29.81S
NEW BERN       PTSUNNY   83  73  72 N21G26    29.74S
ELIZABETH CITY PTSUNNY   79  73  82 N23G35    29.76F

.........CENTRAL NC.........

CITY           SKY/WX    TMP DP  RH WIND       PRES   REMARKS
RALEIGH DURHAM MOSUNNY   83  69  62 N9G18     29.87F
ROCKY MOUNT    LGT RAIN  79  73  82 N12       29.85S
ROANOKE RAPIDS NOT AVBL
FAYETTEVILLE   MOSUNNY   85  71  63 N14       29.82S HX  90
HOFFMAN        SUNNY     86  70  59 N12       29.83F HX  91

.........WESTERN NC.........

CITY           SKY/WX    TMP DP  RH WIND       PRES   REMARKS
CHARLOTTE      MOSUNNY   86  69  56 N8        29.91S HX  90
GREENSBORO     PTSUNNY   85  69  58 N9        29.91F
HICKORY        NOT AVBL
BOONE          NOT AVBL
ASHEVILLE      NOT AVBL

.....................REST OF SOUTH CAROLINA.....................

.........EASTERN SC.........

CITY           SKY/WX    TMP DP  RH WIND       PRES   REMARKS
CHARLESTON     MOSUNNY   88  73  61 N10       29.80F HX  95
BEAUFORT MCAS  MOSUNNY   89  73  59 NW12      29.82F HX  97
HILTON HEAD    SUNNY     90  72  55 N10       29.83F HX  96

.........CENTRAL SC.........

CITY           SKY/WX    TMP DP  RH WIND       PRES   REMARKS
COLUMBIA       MOSUNNY   91  68  46 W10G16    29.84F HX  95
ORANGEBURG     MOSUNNY   89  68  49 VRB6      29.84F HX  93
SUMTER SHAW    MOSUNNY   87  71  59 NW10      29.81F HX  93

.........WESTERN SC.........

CITY           SKY/WX    TMP DP  RH WIND       PRES   REMARKS
GREENVILLE     NOT AVBL
ROCK HILL        N/A    N/A N/A N/A MISG      29.90F
ANDERSON       MOSUNNY   87  64  46 E5        29.91F
CLEMSON        NOT AVBL
GREENWOOD      MOSUNNY   86  66  51 N10       29.91F


...................COASTAL AND OFFSHORE REPORTS..................

................LOCAL PIERS AND NC RESERVE................


STATION/POSITION TIME  SKY/WX   TEMP    WIND        PRES    VSBY
                                AIR SEA DIR/SP/G
                 (UTC)          (F)     (DEG/KT/KT) (MB)    (MI)
JOHNY MRCER PIER 2048            83 81  330/ 13/ 22 1006.6F
NC RESRV MASNBRO 1945            86     270/  2     1008.0
OCEAN CREST PIER NOT AVBL
SPRINGMAID  PIER 2048                               1007.9F


................COASTAL AND OFFSHORE BUOYS................


STATION/POSITION TIME  SKY/WX   TEMP    WIND        PRES    VSBY
                                AIR SEA DIR/SP/G
                 (UTC)          (F)     (DEG/KT/KT) (MB)    (MI)
DIMNDSHOAL 41025 2050            78 82  360/ 35/ 45  999.1S
WVE H/P(F/S)= 17/13 SWL H/P/D(F/S/D)= 13/130/13

CAPE LOOKOUT     2100            81     360/ 25/ 33 1004.2R
ONSLOW BAY 41036 NOT AVBL
ONSLOW BAY 41064 2008            81     360/ 17/ 21 1005.2S
ONSLOW BAY 41159 NOT AVBL
MASNBO INL 41110 2059               78                N/A
WVE H/P(F/S)=  5/13 SWL H/P/D(F/S/D)=  3/110/13

WILM HARBR 41108 2100               79                N/A
WVE H/P(F/S)=  4/13 SWL H/P/D(F/S/D)=  3/140/13

27SE WRITB 41037 2008            79 79  320/ 17/ 27 1006.3R
FRYING PAN 41013 2100            82     330/ 16/ 21 1006.9
SUNST NRSH 41024 2008            83 79  360/ 12/ 19 1008.0
CAPRS NRSH 41029 2008            83 81  150/  2/  6 1009.1F
EDISTO     41004 2050            79 81  340/  8/ 10 1008.7F
WVE H/P(F/S)=  6/ 6 SWL H/P/D(F/S/D)=  5/ 70/ 6



..........OFFSHORE BUOYS BEYOND 100 NM OFFSHORE...........
.....IN A TRIANGLE---HAT TO BERMUDA TO BAHAMAS TO HAT.....


STATION/POSITION TIME  SKY/WX   TEMP    WIND        PRES    VSBY
                                AIR SEA DIR/SP/G
                 (UTC)          (F)     (DEG/KT/KT) (MB)    (MI)
150E HAT   41001 NOT AVBL
W BERMUDA  41048 2100            81 80  180/ 25/ 33 1009.0
ATLANTIC S 41049 2050            82 83  100/  6/ 10 1017.6F
WVE H/P(F/S)=  9/11 SWL H/P/D(F/S/D)=  8/290/11

E BAHAMAS  41046 2100            83     150/ 10/ 12 1014.8
NE BAHAMAS 41047 2100            81     190/ 14/ 17 1012.6
120E CANVRL41010 2100                   300/ 10/ 14 1010.1

END




USA.gov is the U.S. government's official web portal to all federal, state and local government web resources and services.